This demonstration page uses our WeatherBlox Daily Observations layout. Learn more.

Left ArrowRight Arrow

40.92945, -100.16068

Hourly Observations for December 28, 2020

Temp ( °F °C ) Dew Point ( °F °C ) Humidity (%) Winds ( mph kmh ) Pressure ( in mb ) Visibility ( mi km ) Precip ( " mm )
12:15 am 00:15 Cloudy 29 -1.8 25 -3.7 87 87 Calm 30.32 1027 10 16.0934 0 0
12:35 am 00:35 Cloudy 29 -1.8 25 -3.7 87 87 Calm 30.32 1027 10 16.0934 0 0
12:55 am 00:55 Cloudy 29 -1.8 26 -3.5 88 88 Calm 30.33 1027 10 16.0934 0 0
1:15 am 01:15 Cloudy 29 -1.5 26 -3.1 89 89 Calm 30.33 1027 10 16.0934 0 0
1:35 am 01:35 Cloudy 30 -1.3 26 -3.2 87 87 WNW 3 6 30.32 1027 10 16.0934 0 0
1:55 am 01:55 Cloudy 29 -1.4 26 -3.4 86 86 Calm 30.33 1027 10 16.0934 0 0
2:15 am 02:15 Cloudy 29 -1.7 26 -3.6 87 87 W 6 9 30.34 1028 10 16.0934 0 0
2:35 am 02:35 Cloudy 28 -2 26 -3.6 89 89 W 3 6 30.34 1027 10 16.0934 0 0
2:55 am 02:55 Cloudy 28 -2 25 -3.8 88 88 W 5 7 30.36 1028 10 16.0934 0 0
3:15 am 03:15 Cloudy 28 -2.4 25 -3.7 91 91 NNW 3 6 30.36 1028 10 16.0934 0 0
3:35 am 03:35 Cloudy 27 -2.9 25 -4 92 92 N 3 6 30.37 1028 10 16.0934 0 0
3:55 am 03:55 Cloudy 27 -3 24 -4.2 92 92 Calm 30.37 1028 10 16.0934 0 0
4:15 am 04:15 Mostly Cloudy 27 -3 25 -4.1 92 92 Calm 30.37 1028 10 16.0934 0 0
4:35 am 04:35 Partly Cloudy 26 -3.2 24 -4.2 93 93 Calm 30.38 1029 10 16.0934 0 0
4:55 am 04:55 Clear 24 -4.5 22 -5.3 94 94 Calm 30.38 1029 7 11.26538 0 0
5:15 am 05:15 Partly Cloudy 24 -4.6 22 -5.3 95 95 Calm 30.39 1029 7 11.26538 0 0
5:35 am 05:35 Clear 23 -4.8 22 -5.7 94 94 Calm 30.4 1029 10 16.0934 0 0
5:55 am 05:55 Clear 23 -4.8 22 -5.6 94 94 Calm 30.4 1029 7 11.26538 0 0
6:15 am 06:15 Clear 24 -4.7 22 -5.5 94 94 Calm 30.4 1029 10 16.0934 0 0
6:35 am 06:35 Clear 23 -4.9 22 -5.7 94 94 Calm 30.41 1030 10 16.0934 0 0
6:55 am 06:55 Clear 22 -5.5 20 -6.4 93 93 Calm 30.42 1030 7 11.26538 0 0
7:15 am 07:15 Clear 22 -5.4 21 -6.1 95 95 Calm 30.42 1030 7 11.26538 0 0
7:35 am 07:35 Clear 22 -5.8 20 -6.6 94 94 S 6 9 30.44 1031 7 11.26538 0 0
7:55 am 07:55 Clear 22 -5.8 20 -6.8 93 93 S 5 7 30.45 1031 10 16.0934 0 0
8:15 am 08:15 Sunny 22 -5.7 20 -6.7 93 93 SW 3 6 30.46 1031 10 16.0934 0 0
8:35 am 08:35 Sunny 22 -5.4 20 -6.4 93 93 Calm 30.46 1032 10 16.0934 0 0
8:55 am 08:55 Sunny 24 -4.2 22 -5.3 92 92 SSW 3 6 30.46 1032 10 16.0934 0 0
9:15 am 09:15 Sunny 26 -3.2 24 -4.2 93 93 Calm 30.45 1031 10 16.0934 0 0
9:35 am 09:35 Sunny 28 -2.4 25 -3.7 91 91 Calm 30.45 1031 10 16.0934 0 0
9:55 am 09:55 Partly Cloudy 29 -1.5 27 -3 90 90 WSW 5 7 30.45 1031 10 16.0934 0 0
10:15 am 10:15 Partly Cloudy 31 -0.7 27 -2.6 87 87 W 5 7 30.46 1031 10 16.0934 0 0
10:35 am 10:35 Sunny 32 0.1 28 -2.1 85 85 W 8 13 30.46 1031 10 16.0934 0 0
10:55 am 10:55 Sunny 33 0.6 29 -1.9 84 84 WNW 6 9 30.45 1031 10 16.0934 0 0
11:15 am 11:15 Sunny 34 1 29 -1.7 82 82 WNW 7 11 30.44 1031 10 16.0934 0 0
11:35 am 11:35 Sunny 34 1.2 28 -2.1 79 79 W 3 6 30.44 1031 10 16.0934 0 0
11:55 am 11:55 Sunny 34 1.3 28 -2.3 77 77 Calm 30.44 1031 10 16.0934 0 0
12:15 pm 12:15 Sunny 35 1.5 28 -2.2 77 77 Calm 30.42 1030 10 16.0934 0 0
12:35 pm 12:35 Sunny 35 1.8 28 -2.2 75 75 NNE 3 6 30.41 1030 10 16.0934 0 0
12:55 pm 12:55 Sunny 36 2.3 28 -2 74 74 Calm 30.41 1030 10 16.0934 0 0
1:15 pm 13:15 Sunny 36 2.3 28 -2.2 72 72 NE 3 6 30.4 1029 10 16.0934 0 0
1:35 pm 13:35 Sunny 37 2.5 28 -2 73 73 NNE 3 6 30.38 1029 10 16.0934 0 0
1:55 pm 13:55 Partly Cloudy 37 3 29 -1.8 71 71 ENE 5 7 30.37 1028 10 16.0934 0 0
2:15 pm 14:15 Sunny 38 3.1 29 -1.7 71 71 ESE 3 6 30.37 1028 10 16.0934 0 0
2:35 pm 14:35 Mostly Cloudy 38 3.1 29 -1.9 70 70 ENE 7 11 30.36 1028 10 16.0934 0 0
2:55 pm 14:55 Mostly Cloudy 38 3.1 28 -2 70 70 E 6 9 30.36 1028 10 16.0934 0 0
3:15 pm 15:15 Mostly Cloudy 37 2.9 29 -1.9 71 71 E 8 13 30.37 1028 10 16.0934 0 0
3:35 pm 15:35 Cloudy 37 2.8 29 -1.9 72 72 E 10 17 30.37 1028 10 16.0934 0 0
3:55 pm 15:55 Cloudy 36 2.1 29 -1.4 78 78 E 12 19 30.38 1029 10 16.0934 0 0
4:15 pm 16:15 Cloudy 34 1.2 29 -1.8 81 81 E 12 19 30.39 1029 10 16.0934 0 0
4:35 pm 16:35 Cloudy 33 0.3 28 -2.1 84 84 E 10 17 30.4 1030 10 16.0934 0 0
4:55 pm 16:55 Cloudy 32 0 28 -2.2 85 85 E 12 19 30.41 1030 10 16.0934 0 0
5:15 pm 17:15 Cloudy 32 0 28 -2.3 85 85 E 12 19 30.41 1030 10 16.0934 0 0
5:35 pm 17:35 Cloudy 32 -0.1 28 -2.5 84 84 ESE 10 17 30.42 1030 10 16.0934 0 0
5:55 pm 17:55 Cloudy with Light Snow 31 -0.3 27 -2.8 83 83 E 12 19 30.42 1030 10 16.0934 0 0
6:15 pm 18:15 Cloudy 31 -0.5 27 -2.8 85 85 ESE 12 19 30.42 1030 10 16.0934 0 0
6:35 pm 18:35 Cloudy 31 -0.5 26 -3.1 83 83 ESE 13 20 30.42 1030 10 16.0934 0 0
6:55 pm 18:55 Cloudy with Light Snow 31 -0.6 27 -3 84 84 ESE 13 20 30.42 1030 5 8.0467 0 0
7:15 pm 19:15 Cloudy with Light Snow 30 -1 27 -2.6 89 89 SE 10 17 30.43 1030 3 4.82802 0 0
7:35 pm 19:35 Cloudy with Light Snow 30 -1.1 27 -2.6 90 90 SE 10 17 30.42 1030 3 4.82802 0 0
7:55 pm 19:55 Cloudy with Light Snow 30 -1.1 28 -2.3 92 92 SE 10 17 30.42 1030 2.5 4.02335 0 0
8:15 pm 20:15 Cloudy with Light Snow 30 -1.2 28 -2.1 94 94 SE 8 13 30.42 1030 1.5 2.41401 0 0
8:35 pm 20:35 Cloudy with Light Snow 30 -1.1 28 -2 94 94 SE 8 13 30.41 1030 1.5 2.41401 0 0
8:55 pm 20:55 Cloudy with Light Snow 30 -1.3 28 -2 95 95 ESE 8 13 30.4 1029 1.75 2.816345 0 0
9:15 pm 21:15 Cloudy with Light Snow 29 -1.5 28 -2.2 95 95 SE 8 13 30.39 1029 2 3.21868 0 0
9:35 pm 21:35 Cloudy with Light Snow 29 -1.6 28 -2.3 95 95 ESE 9 15 30.38 1029 2 3.21868 0 0
9:55 pm 21:55 Cloudy with Light Snow 29 -1.6 28 -2.5 94 94 ESE 9 15 30.38 1029 1.75 2.816345 0 0
10:15 pm 22:15 Cloudy with Light Snow 28 -2 27 -2.8 94 94 ESE 13 20 30.37 1028 3 4.82802 0 0
10:35 pm 22:35 Cloudy with Light Snow 28 -2.2 26 -3.2 93 93 SE 13 20 30.38 1029 1.75 2.816345 0 0
10:55 pm 22:55 Cloudy with Light Snow 28 -2.3 26 -3.2 94 94 SE 10 17 30.38 1029 1.25 2.011675 0 0
11:15 pm 23:15 Cloudy with Snow 28 -2.5 26 -3.3 94 94 SE 9 15 30.38 1029 1.25 2.011675 0 0
11:35 pm 23:35 Cloudy with Snow 28 -2.5 26 -3.5 93 93 ESE 10 17 30.36 1028 0.5 0.80467 0 0
11:55 pm 23:55 Cloudy with Snow 27 -2.8 25 -3.7 94 94 ESE 14 22 30.36 1028 0.25 0.402335 0 0

Powered by AerisWeather